Volver al catálogo

SL-12 R/B(2)

ActivoGEO
NORAD 18446·ROCKET BODY·🇷🇺 Russia

Lanzado Oct 28, 1987 desde Baikonur Cosmodrome

Loading…

TLE

ActualizadoSource: Space-Track

Época: Sep 14, 2026, 15:57 UTC

1 18446U 87091D   26257.66471475 -.00000243  00000-0  00000-0 0  9990
2 18446  10.6644 325.1626 0023490 268.3287  91.7824  1.00149045130891

Sigue SL-12 R/B(2) en tiempo real con AllMySat

Download on the App Store